Regional Weather Roundup
Issued by NWS

Home | Current Version | Previous Version | Graphics & Text | Print | Product List | Glossary On
Versions: 1 2 3 4 5 6 7 8 9 10 11 12 13 14 15 16 17 18 19 20 21 22 23 24 25 26 27 28 29 30 31 32 33 34 35 36 37 38 39 40 41 42 43 44 45 46 47 48 49 50
000
ASUS43 KFSD 040010
RWRSD

WEATHER ROUNDUP FOR SOUTH DAKOTA
NATIONAL WEATHER SERVICE SIOUX FALLS SD
700 PM CDT FRI JUL 03 2015

NOTE: "FAIR" INDICATES FEW OR NO CLOUDS BELOW 12,000 FEET WITH NO
SIGNIFICANT WEATHER AND/OR OBSTRUCTIONS TO VISIBILITY.


SDZ001>005-009-010-012>017-040100-
NORTHWEST AND NORTH CENTRAL SOUTH DAKOTA

CITY           SKY/WX    TMP DP  RH WIND       PRES   REMARKS
BUFFALO          N/A     83  55  38 SE12      29.87F
FAITH            N/A     81  58  45 S7        29.94F
MOBRIDGE       MOSUNNY   82  64  54 SE3       29.90F HAZE
$$

SDZ012>016-024>037-041>051-057-063-072>074-040100-
SOUTHWEST AND SOUTH CENTRAL SOUTH DAKOTA

CITY           SKY/WX    TMP DP  RH WIND       PRES   REMARKS
RAPID CTY ARPT MOSUNNY   80  61  52 SE9       29.97F
PIERRE         MOSUNNY   79  65  62 SE6       29.91F HAZE
CUSTER         MOSUNNY   72  54  53 SE8       30.10F
ELLSWORTH AFB  SUNNY     80  60  50 SE12      29.96F
PHILIP         SUNNY     81  62  52 E8        29.93F HAZE
PINE RIDGE     SUNNY     80  58  46 E5        29.99F
SPEARFISH      FAIR      77  64  65 E12       29.99F
WINNER         FAIR      84  58  40 E8        29.95F
$$

SDZ004>011-016>023-039-040-040100-
NORTHEAST SOUTH DAKOTA

CITY           SKY/WX    TMP DP  RH WIND       PRES   REMARKS
ABERDEEN       CLOUDY    82  65  56 SE3       29.91F HAZE
WATERTOWN      SUNNY     79  63  57 W6        29.93F HAZE
BROOKINGS      MOSUNNY   79  64  61 W6        29.96S
SISSETON         N/A     81  64  56 CALM      29.90F
$$

SDZ017-020-022-023-036>040-048>070-040100-
SOUTHEAST SOUTH DAKOTA

CITY           SKY/WX    TMP DP  RH WIND       PRES   REMARKS
SIOUX FALLS    CLOUDY    77  63  61 CALM      29.95F
HURON          MOSUNNY   79  67  66 S5        29.92F
CHAMBERLAIN    SUNNY     79  66  64 SE3       29.94F
MITCHELL       SUNNY     79  66  64 SE6       29.94F
YANKTON        SUNNY     77  63  61 NW3       29.93F
$$

ABBREVIATIONS USED IN REMARKS
   TC - TEMPERATURE IN CELSIUS
  WCI - WIND CHILL INDEX
   HX - HEAT INDEX
  VSB - VISIBILITY




USA.gov is the U.S. government's official web portal to all federal, state and local government web resources and services.